Regional Weather Roundup
Issued by NWS Burlington, VT

Home | Current Version | Previous Version | Text Only | Print | Product List | Glossary On
Versions: 1 2 3 4 5 6 7 8 9 10 11 12 13 14 15 16 17 18 19 20 21 22 23 24 25 26 27 28 29 30 31 32 33 34 35 36 37 38 39 40 41 42 43 44 45 46 47 48 49 50
000
ASUS41 KBTV 271330
RWRBTV
VERMONT REGIONAL WEATHER ROUNDUP
NATIONAL WEATHER SERVICE BURLINGTON VT
800 AM EST FRI FEB 27 2015

NOTE: "FAIR" INDICATES FEW OR NO CLOUDS BELOW 12,000 FEET WITH NO
SIGNIFICANT WEATHER AND/OR OBSTRUCTIONS TO VISIBILITY.

* THESE REPORTS ARE NOT UNDER NWS QUALITY CONTROL AND/OR DO NOT
  REPORT WEATHER SUCH AS PRECIPITATION AND FOG.

VTZ001>019-271400-
_____VERMONT_____


CITY           SKY/WX    TMP DP  RH WIND       PRES   REMARKS
BURLINGTON     SUNNY     -4 -11  72 CALM      30.36R
MONTPELIER     SUNNY     -6 -12  75 CALM      30.29R
MORRISVILLE    SUNNY    -10 -15  78 CALM      30.32R
ST. JOHNSBURY*   N/A     -8 -14  74 MISG      30.31R
LYNDONVILLE*   FAIR      -5 -16  59 CALM      30.27R
MIDDLEBURY*    FAIR      -3 -10  69 CALM      30.35R
RUTLAND*       SUNNY     -2  -9  71 CALM      30.31R
SPRINGFIELD    SUNNY      0  -7  72 CALM      30.32R
HIGHGATE*      FAIR      -2 -11  65 CALM      30.37R
NEWPORT*       FAIR     -10 -17  68 CALM      30.29R
BENNINGTON     MOSUNNY    5  -4  66 CALM      30.32R
MT. MANSFIELD*   N/A     -9 N/A N/A CALM        N/A

_____LAKE CHAMPLAIN_____


CITY           SKY/WX    TMP DP  RH WIND       PRES   REMARKS
BURTON ISLAND*   N/A     -2  -9  71 SE2         N/A
COLCHESTER RF*   N/A      3  -2  78 S7          N/A
DIAMOND ISL*     N/A      1  -6  71 SE2         N/A

$$

NYZ007-026>031-035-052-083-271400-
_____NORTHERN NEW YORK_____


CITY           SKY/WX    TMP DP  RH WIND       PRES   REMARKS
PLATTSBURGH    SUNNY     -2 -10  69 SE3       30.36R
SARANAC LAKE   SUNNY    -18 -23  77 CALM      30.20R
MASSENA        MOSUNNY  -13 -19  75 SW3       30.40R
OGDENSBURG*    SUNNY     -6  -9  84 CALM      30.39R
POTSDAM*       SUNNY     -4  -9  77 SW3       30.38R
WATERTOWN      MOSUNNY   -7 -13  75 E3        30.39R
FT DRUM        MOSUNNY   -5 -12  71 S3        30.34R
ALBANY         MOSUNNY    7  -4  60 NW8       30.39R
GLENS FALLS    SUNNY     -2  -9  72 CALM      30.37R

$$
NHZ002-005-011-271400-
_____NEW HAMPSHIRE_____


CITY           SKY/WX    TMP DP  RH WIND       PRES   REMARKS
LEBANON        SUNNY      0 -11  59 NE3       30.31R
KEENE          SUNNY      7   0  72 CALM      30.32R
MT WASHINGTON  PTSUNNY   -9 -18  64 NW38        N/A  WCI -41
PLYMOUTH       FAIR       8  -6  52 W7        30.29R
WHITEFIELD     MOSUNNY  -10 -15  78 CALM      30.26R

$$

_____REGIONAL QUEBEC LOCATIONS_____


CITY           SKY/WX    TMP DP  RH WIND       PRES   REMARKS
MONTREAL       SUNNY     -4 -13  65 SW6       30.38R
QUEBEC CITY    MOSUNNY   -8 -15  71 SW16      30.27R WCI -30
SHERBROOKE     SUNNY    -11 -17  77 CALM      30.28R

_____REGIONAL ONTARIO LOCATIONS_____


CITY           SKY/WX    TMP DP  RH WIND       PRES   REMARKS
OTTAWA         MOSUNNY   -9 -15  77 W5        30.36R

______KEY______
VSB  - VISIBILITY IN MILES
WCI  - WIND CHILL INDEX
HX   - HEAT INDEX
$$
NNNN



USA.gov is the U.S. government's official web portal to all federal, state and local government web resources and services.